ImprimablePdf
Brussel, 02/10/2011, BEL - Brussels Marathon & Half Marathon
Liste des rapports > Half Marathon - Classement
Recherche: Page: [1]
196 Entrées
 
Les réclamations ne sont plus acceptées, les résultats sont considérés comme définitifs.
RangNrNomAgeIOCTempsTkmMoy.ScrLocalité
Vos photos grâce à Sportograf1.5773FSUGIURA Miyuki40JPN1:27:594:11 14.39120AICHI ,GAMAGORI
Vos photos grâce à Sportograf2.3163FELSEN Annemie42LUX1:37:224:37 13.00478STEINFORT
Vos photos grâce à Sportograf3.10274FCOVENS Benedicte44BEL1:39:144:43 12.76578BRUSSEL 2
Vos photos grâce à Sportograf4.8814FBRANCH Ann42BEL1:39:164:43 12.75582BRUXELLES 17
Vos photos grâce à Sportograf5.9206FCOPPENS Lies43BEL1:42:354:52 12.34809HASSELT
Vos photos grâce à Sportograf6.10031FMALAXOS Clara42BEL1:43:274:55 12.24876
Vos photos grâce à Sportograf7.9764FD'HONDT Ann41BEL1:43:494:56 12.19900OUTGAARDEN
Vos photos grâce à Sportograf8.9869FBRUSSELMANS Dorothee42BEL1:44:074:57 12.16937ENGHIEN
Vos photos grâce à Sportograf9.3489FHOLLANTS Katleen40BEL1:44:564:59 12.061003TERNAT
Vos photos grâce à Sportograf10.8498FDEMAY Isabelle42BEL1:47:155:06 11.801192BRUXELLES
Vos photos grâce à Sportograf11.3030FWARDE Shera43BEL1:48:255:09 11.681301UCCLE
Vos photos grâce à Sportograf12.7446FBRAUN Kathrin43DEU1:48:515:10 11.631344TEUBLITZ
Vos photos grâce à Sportograf13.10335FLEENTJENS Christel43BEL1:49:305:12 11.561402SAINT-MARTIN
Vos photos grâce à Sportograf14.6668FJANSSENS Heidi40BEL1:49:555:13 11.521439MELSELE
Vos photos grâce à Sportograf15.6587FBAKKER Anja42NLD1:50:025:13 11.501455BRESKENS
Vos photos grâce à Sportograf16.5547FESSAYAH Sari44BEL1:50:255:15 11.461502KRAAINEM
Vos photos grâce à Sportograf17.7131FMYLLE Godewina44BEL1:50:495:16 11.421537HERENT
Vos photos grâce à Sportograf18.7294FDE VISSCHER Tina44BEL1:51:165:17 11.381593OPWIJK
Vos photos grâce à Sportograf19.7904FDROISSART Martine44BEL1:52:085:19 11.291671VILVOORDE
Vos photos grâce à Sportograf20.8223FDENDOOVEN Annick41BEL1:52:185:20 11.271690KOKSIJDE
Vos photos grâce à Sportograf21.10333FDELMOTTE Isabelle43BEL1:53:015:22 11.201770GOSSELIES
Vos photos grâce à Sportograf22.7661FDHAESE Inge43DEU1:53:495:24 11.121845AKEN
Vos photos grâce à Sportograf23.4991FVAN DEN BOSSCHE Micheline43BEL1:54:455:27 11.031964MERCHTEM
Vos photos grâce à Sportograf24.5702FHEISKANEN Anu44DEU1:54:565:27 11.011988ROSRATH
Vos photos grâce à Sportograf25.5271FGARNIER Valerie42BEL1:55:135:28 10.992020WATERLOO
Vos photos grâce à Sportograf26.8236FVILLETTE Beatrice43FRA1:55:405:29 10.942071MONT DE MARSAN
Vos photos grâce à Sportograf27.3565FCALLEEUW Raïsa40BEL1:55:565:30 10.922094BRUGGE
Vos photos grâce à Sportograf28.8458FQUINN Mette41BEL1:56:115:31 10.902135BRUSSELS
Vos photos grâce à Sportograf29.7122FGARDINER Christine43BEL1:56:415:32 10.852221TERVUREN
Vos photos grâce à Sportograf30.8323FSEGAERT Evelyne40BEL1:57:025:33 10.822271DENDERLEEUW
Vos photos grâce à Sportograf31.10345FDEJAIFFE Ingrid40BEL1:57:065:34 10.812279JEMEPPE-SUR-SAMBRE
Vos photos grâce à Sportograf32.7371FBOULANGER Valerie42BEL1:57:175:34 10.792302BRUXELLES 2
Vos photos grâce à Sportograf33.6833FVERNOOIJ Monique43NLD1:58:065:36 10.722408MONTFOORT
Vos photos grâce à Sportograf34.4951FWILLEMS Hilde42BEL1:58:115:37 10.712419LUBBEEK
Vos photos grâce à Sportograf35.5355FVERSTRAETEN Ria44BEL1:58:405:38 10.672483PELLENBERG
Vos photos grâce à Sportograf36.5531FHANSEN Dominique41LUX1:58:425:38 10.662487LUXEMBOURG
Vos photos grâce à Sportograf37.6811FMELZER Samantha44BEL1:59:085:39 10.632545ETTERBEEK
Vos photos grâce à Sportograf38.5303FLAURET Chantal40BEL1:59:125:40 10.622556KALMTHOUT
Vos photos grâce à Sportograf39.7847FPEETROONS Marjan41BEL1:59:175:40 10.612564LINDEN
Vos photos grâce à Sportograf40.5005FESTUPINAN Luz43BEL1:59:265:40 10.602595BRUXELLES
Vos photos grâce à Sportograf41.3323FOHEIM Yvonne41BEL1:59:275:40 10.602601LICHTENBUSCH
Vos photos grâce à Sportograf42.4563FPERRRAULT Christine42BEL1:59:345:41 10.592623KRAAINEM
Vos photos grâce à Sportograf43.4968FHEYVAERT Isabelle42BEL1:59:455:41 10.572650SINT-DENIJS-WESTREM
Vos photos grâce à Sportograf44.3505FANNEREL Lieve44BEL1:59:455:41 10.572652TIENEN
Vos photos grâce à Sportograf45.9793FNEF Vicky41CHE2:00:025:42 10.542681CONFIGNON
Vos photos grâce à Sportograf46.10269FVERSTRAETE France41BEL2:00:185:43 10.522719ANDERLECHT
Vos photos grâce à Sportograf47.6348FKOCH Liesbeth42BEL2:00:315:43 10.502752KAPELLEN (ANTW.)
Vos photos grâce à Sportograf48.6109FVERBRUGGE Ruth41BEL2:00:345:43 10.502758KLUISBERGEN
Vos photos grâce à Sportograf49.8226FVERKEST Eveline40BEL2:00:365:43 10.502762LEERBEEK
Vos photos grâce à Sportograf50.8629FDUPONT Virginie40BEL2:01:035:45 10.462807BOITSFORT
Vos photos grâce à Sportograf51.7396FSYLVAIN Rita42BEL2:01:065:45 10.452814DILBEEK
Vos photos grâce à Sportograf52.5318FCLEMENTE AUDINA Montserrat43ESP2:01:125:45 10.442824EJEA DE LOS CABALLEROS (ZARAGOZA)
Vos photos grâce à Sportograf53.5184FLAFUENTE URREZ Ana Belen41ESP2:01:125:45 10.442825EJEA DE LOS CABALLEROS
Vos photos grâce à Sportograf54.5175FBLONDE Ann44BEL2:01:185:45 10.442835SCHILDE
Vos photos grâce à Sportograf55.8857FVANDENBERGHE Martine43BEL2:01:295:46 10.422864KOKSIJDE
Vos photos grâce à Sportograf56.7867FDELATINNE Dominique40BEL2:01:465:47 10.402897OTTIGNIES
Vos photos grâce à Sportograf57.8756FPIERANTOZZI Francesca43BEL2:01:585:47 10.382916BRUXELLES
Vos photos grâce à Sportograf58.5631FSUGIURA Yuki40JPN2:02:125:48 10.362936NAGOYA, AICHI
Vos photos grâce à Sportograf59.7553FVREBOS Lena44BEL2:02:515:50 10.302994MEERBEEK
Vos photos grâce à Sportograf60.10249FMERAND Lydie44BEL2:02:545:50 10.303002RIXENSART
Vos photos grâce à Sportograf61.5626FBJERBORG Marie44BEL2:03:395:52 10.243071BRUXELLES
Vos photos grâce à Sportograf62.9870FBRUSSELMANS Valerie42BEL2:03:435:52 10.233080TERVUREN
Vos photos grâce à Sportograf63.8364FWEBER WIRTH Nicole44LUX2:03:575:53 10.213109DUDELANGE
Vos photos grâce à Sportograf64.8093FHOUBION Brigitte43BEL2:04:035:53 10.203113SCHAARBEEK
Vos photos grâce à Sportograf65.9494FGOOSENS Heidi40BEL2:04:295:55 10.173162
Vos photos grâce à Sportograf66.8518FVANWEYENBERG Laurence42BEL2:04:305:55 10.173165BRUXELLES
Vos photos grâce à Sportograf67.9493FCELIS Annemie43BEL2:04:315:55 10.173166
Vos photos grâce à Sportograf68.8683FBAEYENS Katrien43BEL2:05:035:56 10.123231LEDE
Vos photos grâce à Sportograf69.9586FKURKI Susanna40FIN2:05:275:57 10.093268AUDERGHEM
Vos photos grâce à Sportograf70.4877FHUVAERE Daniella44BEL2:06:005:59 10.053327VORST
Vos photos grâce à Sportograf71.5281FLEFEVRE Carine40BEL2:06:156:00 10.033354GANSHOREN
Vos photos grâce à Sportograf72.7535FDRIESSEN Ellen40BEL2:06:296:00 10.013383HASSELT
Vos photos grâce à Sportograf73.4246FGOSSE France40BEL2:06:336:00 10.003397BINCHE
Vos photos grâce à Sportograf74.6054FDERZELLE Christel42BEL2:07:066:02 9.963448JANDRAIN-JANDRENOUILLE
Vos photos grâce à Sportograf75.5258FVAN LINDT Kathy43BEL2:07:096:02 9.963451KALMTHOUT
Vos photos grâce à Sportograf76.6536FOKHOYA Nelima44BEL2:07:206:03 9.943464BRUSSELS
Vos photos grâce à Sportograf77.5536FDEFAZIO Leigh40BEL2:07:286:03 9.933476EVERBERG
Vos photos grâce à Sportograf78.8872FKUNZ Anja44BEL2:07:306:03 9.933480UCCLE
Vos photos grâce à Sportograf79.3634FKERKHOFS Heidi43BEL2:07:356:03 9.923493BREE
Vos photos grâce à Sportograf80.5180FPERSOONE Catherine44BEL2:07:426:04 9.913507SCHOTEN
Vos photos grâce à Sportograf81.7587FDUBOIS Raymonde44BEL2:08:436:07 9.833606NANDRIN
Vos photos grâce à Sportograf82.9780FGROSSSCHAEDL Ute41AUS2:08:486:07 9.833612BAERNBACH
Vos photos grâce à Sportograf83.7474FSINDELAR Martina42BEL2:09:096:08 9.803631BRUXELLES
Vos photos grâce à Sportograf84.7329FNICOLAS Anne-Marie43BEL2:09:146:08 9.793641WEMMEL
Vos photos grâce à Sportograf85.7435FCLAPHAM Sarah42BEL2:09:206:08 9.793652WOLUWE ST LAMBERT
Vos photos grâce à Sportograf86.9849FROOZEN Irene44BEL2:09:486:10 9.753694BRUXELLES 1
Vos photos grâce à Sportograf87.5694FVLAEMINCK Else44BEL2:09:556:10 9.743705SCHOTEN
Vos photos grâce à Sportograf88.7326FBOGERS Margot41BEL2:09:586:10 9.743710HOEVENEN
Vos photos grâce à Sportograf89.10268FJARAMILLO Geny44BEL2:09:596:10 9.743714
Vos photos grâce à Sportograf90.6322FTHEVISSEN Karin42BEL2:09:596:10 9.743715BIERBEEK
Vos photos grâce à Sportograf91.6434FZOMERSZTAJN Mirjam40BEL2:10:296:12 9.703766BRUXELLES
Vos photos grâce à Sportograf92.7050FBRYSSINCK Kathleen43BEL2:10:446:12 9.683789PULLE
Vos photos grâce à Sportograf93.9029FVAN HOOF Christine44BEL2:10:496:13 9.683796LEUVEN
Vos photos grâce à Sportograf94.6913FDEVOS Ursula42BEL2:10:526:13 9.673805GISTEL
Vos photos grâce à Sportograf95.10305FRINTA-LEBBAR Kaija43BEL2:10:556:13 9.673809WOLUWE-SAINT-PIERRE
Vos photos grâce à Sportograf96.9169FGOEMAN Ann40BEL2:11:006:13 9.663824HOFSTADE
Vos photos grâce à Sportograf97.8978FBAFFIGO Marta42BEL2:11:126:14 9.653839LA HULPE
Vos photos grâce à Sportograf98.7874FDEBRUYNE Geraldine42BEL2:11:186:14 9.643848IXELLES
Vos photos grâce à Sportograf99.10322FVANDENDAEMLE Sandrine42BEL2:11:296:14 9.633861BAISY-THY
Vos photos grâce à Sportograf100.10173FLEYSSENS Valerie40BEL2:11:296:14 9.633862WATERLOO
Vos photos grâce à Sportograf101.6602FCORTEIL Anne44BEL2:11:366:15 9.623872STEMBERT
Vos photos grâce à Sportograf102.4969FWEBER Liesl44BEL2:11:596:16 9.593900OVERIJSE
Vos photos grâce à Sportograf103.7859FMERA JIMENEZ Silvia43BEL2:12:036:16 9.593907BRUXELLES
Vos photos grâce à Sportograf104.6840FNEALE Isabelle41BEL2:12:146:17 9.573921BRUXELLES 18
Vos photos grâce à Sportograf105.4262FVAN LEEUWEN Nancy40NLD2:12:466:18 9.533958ZALTBOMMEL
Vos photos grâce à Sportograf106.10216FPERPETTE Christine44BEL2:12:556:19 9.523971COURT-SAINT-ETIENNE
Vos photos grâce à Sportograf107.4923FLE LIEVRE Claire40FRA2:12:586:19 9.523975SUCY EN BRIE
Vos photos grâce à Sportograf108.4148FFAYE Suzi42GBR2:13:246:20 9.494007OXFORD
Vos photos grâce à Sportograf109.8003FDESMET Els44BEL2:13:266:20 9.494012DEERLIJK
Vos photos grâce à Sportograf110.5033FDERAUX Cecile40BEL2:13:266:20 9.494014BERCHEM-SAINTE-AGATHE
Vos photos grâce à Sportograf111.10008FBAKO Stacee44BEL2:13:306:20 9.484020
Vos photos grâce à Sportograf112.4124FBOERJAN Evelien40BEL2:13:486:21 9.464046BRUGGE
Vos photos grâce à Sportograf113.8401FFARRIS Mary Jeanne44BEL2:13:596:22 9.454057IXELLES
Vos photos grâce à Sportograf114.5997FPELTONEN Tytti43BEL2:14:196:23 9.424085IXELLES
Vos photos grâce à Sportograf115.4318FEVERARD Gaelle40CAN2:14:466:24 9.394119BAIE D'URFE
Vos photos grâce à Sportograf116.5800FLEGER Valerie43CHE2:14:556:24 9.384128MURIST
Vos photos grâce à Sportograf117.4787FWEYNANTS Sabine41BEL2:15:036:25 9.374141BOUTERSEM
Vos photos grâce à Sportograf118.7094FEYCKERMANS Talle43BEL2:15:236:26 9.354168BEERSEL
Vos photos grâce à Sportograf119.7030FMARTINEZ Maria-Dolores44BEL2:15:546:27 9.314201BRUXELLES 18
Vos photos grâce à Sportograf120.8519FVERMEIRE Nancy40BEL2:16:096:28 9.304211BRUGGE
Vos photos grâce à Sportograf121.9055FDE BRUYN Karin41BEL2:16:146:28 9.294216WAMBEEK
Vos photos grâce à Sportograf122.8509FDE MEYER Veerle41BEL2:16:146:28 9.294217BRASSCHAAT
Vos photos grâce à Sportograf123.10433FBEKAVAC Lucia41BEL2:16:396:29 9.264236HANRET
Vos photos grâce à Sportograf124.9460FMILLAR Susan40BEL2:17:026:30 9.244261BRUXELLES
Vos photos grâce à Sportograf125.9914FDONADELLO Ines42BEL2:17:526:33 9.184319VILVOORDE
Vos photos grâce à Sportograf126.6946FFERNANDEZ ESTEBAN Marisa42BEL2:18:006:33 9.174329BRUXELLES
Vos photos grâce à Sportograf127.7000FDIERGE Genevieve43BEL2:18:126:34 9.164345CHASTRE
Vos photos grâce à Sportograf128.9440FCOLDEVIN Laila44BEL2:18:166:34 9.154349
Vos photos grâce à Sportograf129.4445FGORDTS Anneliese40BEL2:18:216:34 9.154355HASSELT
Vos photos grâce à Sportograf130.6113FBROWAEYS Dina41BEL2:18:256:34 9.154363HOREBEKE
Vos photos grâce à Sportograf131.4493FFREYER Dagmar41DEU2:18:276:34 9.144367FLENSBURG
Vos photos grâce à Sportograf132.7387FVANAKEN Patricia42BEL2:18:426:35 9.134382HEUSDEN-ZOLDER
Vos photos grâce à Sportograf133.10388FBERTOLISSI Paola42BEL2:18:586:36 9.114397BRUXELLES
Vos photos grâce à Sportograf134.9538FCERINI Carla44BEL2:19:016:36 9.114401FONTAINE-L'EVÊQUE
Vos photos grâce à Sportograf135.6429FKEMP Michelle43BEL2:19:216:37 9.084414OVERIJSE
Vos photos grâce à Sportograf136.10119FBERNAL Carmen44BEL2:19:336:37 9.074430BRUSSEL 5
Vos photos grâce à Sportograf137.4437FBILEK Agathe Pascalle40AUT2:19:376:38 9.074436VIENNE
Vos photos grâce à Sportograf138.7498FEYDIERS Inge41BEL2:19:426:38 9.064439SINT-PIETERS-LEEUW
Vos photos grâce à Sportograf139.4043FTRILLO Miriam43MEX2:19:546:38 9.054448XALAPA, VERACRUZ
Vos photos grâce à Sportograf140.8623FSCHOONJANS Ann44BEL2:20:226:40 9.024471HAACHT
Vos photos grâce à Sportograf141.3135FKIZILKAYA Nalan41GBR2:20:566:41 8.984495STAINES, MIDDLESEX
Vos photos grâce à Sportograf142.6800FLIMBOSCH Caroline41BEL2:21:046:42 8.974507BRUXELLES 17
Vos photos grâce à Sportograf143.5132FVAN DER LINDEN Janneke44NLD2:21:126:42 8.964515NIJMEGEN
Vos photos grâce à Sportograf144.7872FVERWERFT Lydia44BEL2:21:136:42 8.964517BRECHT
Vos photos grâce à Sportograf145.7481FWITTOUCK Charlotte42BEL2:21:196:42 8.964521EVERBERG
Vos photos grâce à Sportograf146.8369FVAN EECKHOUT Ingrid40BEL2:21:206:42 8.964525OPWIJK
Vos photos grâce à Sportograf147.8618FJANS Hilde43BEL2:21:206:42 8.964526EIGENBILZEN
Vos photos grâce à Sportograf148.10204FCAMPOGRANDE Anna44BEL2:21:206:42 8.964528TILLY
Vos photos grâce à Sportograf149.4632FVAN DER KOLK Joisel40BEL2:21:246:43 8.954534BRUSSEL
Vos photos grâce à Sportograf150.9677FTUMELAIRE Sophie44BEL2:21:536:44 8.924549RAMILLIES
Vos photos grâce à Sportograf151.9879FHALLOY Florence41BEL2:21:586:44 8.924554DWORP
Vos photos grâce à Sportograf152.10221FGOUDMAEKER Katrien42BEL2:22:026:44 8.914557CEROUX-MOUSTY
Vos photos grâce à Sportograf153.8455FZAMMATTEO Nathalie43BEL2:22:136:45 8.904567GELBRESSEE
Vos photos grâce à Sportograf154.10166FLOUCKX Carine44BEL2:22:256:46 8.894579SINT-JORIS-WEERT
Vos photos grâce à Sportograf155.6807FBOODTS Sabine43BEL2:22:326:46 8.884585'S GRAVENWEZEL
Vos photos grâce à Sportograf156.6299FVERMEYLEN Klaartje42BEL2:23:476:49 8.804638MEISE
Vos photos grâce à Sportograf157.6356FDE VALCK Veronique40BEL2:23:486:49 8.804641MEISE
Vos photos grâce à Sportograf158.5236FALLEWIJN Ingue42BEL2:23:536:50 8.804646ANTWERPEN
Vos photos grâce à Sportograf159.8651FVAN CAMPENHOUT Nadine42BEL2:24:066:50 8.784652MEISE
Vos photos grâce à Sportograf160.7939FOLIVEIRA BARROS Manuela42BEL2:24:396:52 8.754668WILRIJK
Vos photos grâce à Sportograf161.5672FLETSCH Gin43LUX2:24:576:53 8.734677AMBER
Vos photos grâce à Sportograf162.4258FCAMBIER Fabienne43BEL2:24:596:53 8.734678ANDERLUES
Vos photos grâce à Sportograf163.6298FLEIJSKENS Martine40BEL2:25:176:54 8.714698ZUTENDAAL
Vos photos grâce à Sportograf164.7775FKRISTENSEN Birthe G44DEN2:26:086:56 8.664731STRUER
Vos photos grâce à Sportograf165.6601FBERTRAND Laurence44BEL2:26:206:57 8.654742INCOURT
Vos photos grâce à Sportograf166.8198FDE ROCKER Isabelle41BEL2:26:286:57 8.644746WAASMUNSTER
Vos photos grâce à Sportograf167.5569FRUIZ CUEVAS Maria42BEL2:26:346:57 8.644749ETTERBEEK
Vos photos grâce à Sportograf168.10468FHALL Catherine40BEL2:26:496:58 8.624761BRUXELLES 6
Vos photos grâce à Sportograf169.5188FROUSSEAU Pascale41BEL2:27:076:59 8.604776OHAIN
Vos photos grâce à Sportograf170.3468FHERREMANS Ann41BEL2:27:267:00 8.594801NINOVE
Vos photos grâce à Sportograf171.5361FSISTERMANS Rachel41NLD2:28:537:04 8.504850MAASTRICHT
Vos photos grâce à Sportograf172.7739FRASMUSSEN Anne M44DEN2:29:457:06 8.454888VINDERUP
Vos photos grâce à Sportograf173.4578FVAN DE VIJVER Veerle43BEL2:29:477:06 8.454891MARIAKERKE (GENT)
Vos photos grâce à Sportograf174.4601FWILLE Micheline42BEL2:29:487:07 8.454894SINT-MARTENS-LATEM
Vos photos grâce à Sportograf175.8703FHENDRICK Veronique41BEL2:30:167:08 8.424903LIMBOURG
Vos photos grâce à Sportograf176.4207FANDERSON Karin43BEL2:30:407:09 8.404913SCHAERBEEK
Vos photos grâce à Sportograf177.7171FBIERNY Sylvie42BEL2:30:477:09 8.404915GANSHOREN
Vos photos grâce à Sportograf178.9505FSTEVENS Hilde44BEL2:31:227:11 8.364930MECHELEN
Vos photos grâce à Sportograf179.7767FRINGSTED Lone40DEN2:32:347:14 8.304964HOLSTEBRO
Vos photos grâce à Sportograf180.7346FDRERA Sabrina41BEL2:32:477:15 8.294968AALST
Vos photos grâce à Sportograf181.8847FVAN PRAET Heidi43BEL2:33:157:16 8.264977WILLEBROEK
Vos photos grâce à Sportograf182.4233FVAN VOLSEM Nancy40BEL2:33:347:17 8.244990SINT-PIETERS-LEEUW
Vos photos grâce à Sportograf183.9983FPASTILLERO Emmy44BEL2:35:367:23 8.135037BORNEM
Vos photos grâce à Sportograf184.7292FKARLSEN Anette40BEL2:35:437:23 8.135039WATERLOO
Vos photos grâce à Sportograf185.4350FVAN VEEN Paula44NLD2:36:527:27 8.075054GEERVLIET
Vos photos grâce à Sportograf186.9985FLEMERRE Jeannet41BEL2:37:187:28 8.055063
Vos photos grâce à Sportograf187.9504FBOLLUE Benedicte40BEL2:39:107:33 7.955100
Vos photos grâce à Sportograf188.9652FMEVIS-BRUGMAN Pascalle43NLD2:40:207:36 7.895114HEERLEN
Vos photos grâce à Sportograf189.7875FDE SMET Viviane44BEL2:40:447:38 7.885121NINOVE-DENDERWINDEKE
Vos photos grâce à Sportograf190.6691FNOVELLO Susanna44ITA2:41:067:39 7.865131MESTRE VENEZIA
Vos photos grâce à Sportograf191.10027FALESSANDRA Ressa42BEL2:41:177:39 7.855133
Vos photos grâce à Sportograf192.7590FAVILA Janett44BEL2:42:117:42 7.805145ANTWERPEN
Vos photos grâce à Sportograf193.7736FGREVE Emilie40DEN2:42:327:43 7.795149HOLSTEBRO
Vos photos grâce à Sportograf194.4123FLIEVENS Loebrecht41BEL2:53:448:15 7.295221BRUGGE
Vos photos grâce à Sportograf195.8634FREYNAERT Natacha40BEL2:58:358:28 7.095239OVERIJSE
Vos photos grâce à Sportograf196.9419FLUIGULIRA Chito Anna41BEL3:03:008:41 6.925251BRUXELLES
DNF: abandon; DSQ: disqualifié; Vitesse en km/h
ChronoRace - Electronic Timing - www.chronorace.be